This is the latest recevied weather packets stored in our database for station/object DO6DD-13. If no packets are shown the sender has not sent any weather packets the latest 10 day(s).
| Time | Temp. | Humidity | Pressure | Rain* | Wind** | Luminosity | Snow |
|---|---|---|---|---|---|---|---|
| 1777819815 | 21.67° C | 43% | 1010 hPa | - | - | 138 W/m² | - |
| 1777819215 | 21.67° C | 42% | 1010 hPa | - | - | 140 W/m² | - |
| 1777818624 | 22.22° C | 41% | 1010 hPa | - | - | 162 W/m² | - |
| 1777818024 | 22.22° C | 40% | 1010 hPa | - | - | 206 W/m² | - |
| 1777817423 | 22.78° C | 39% | 1009.9 hPa | - | - | 214 W/m² | - |
| 1777816823 | 23.33° C | 39% | 1009.9 hPa | - | - | 392 W/m² | - |
| 1777816222 | 22.78° C | 42% | 1009.9 hPa | - | - | 238 W/m² | - |
| 1777815622 | 23.33° C | 39% | 1010 hPa | - | - | 174 W/m² | - |
| 1777815022 | 23.33° C | 41% | 1010 hPa | - | - | 304 W/m² | - |
| 1777814421 | 23.89° C | 40% | 1010.1 hPa | - | - | 324 W/m² | - |
| 1777813820 | 23.89° C | 39% | 1010.2 hPa | - | - | 700 W/m² | - |
| 1777813220 | 23.33° C | 41% | 1010.4 hPa | - | - | 668 W/m² | - |
| 1777812619 | 23.33° C | 42% | 1010.5 hPa | - | - | 544 W/m² | - |
| 1777812019 | 22.78° C | 43% | 1010.5 hPa | - | - | 418 W/m² | - |
| 1777811418 | 22.78° C | 42% | 1010.5 hPa | - | - | 318 W/m² | - |
| 1777810818 | 23.33° C | 42% | 1010.5 hPa | - | - | 408 W/m² | - |
| 1777810217 | 22.78° C | 42% | 1010.6 hPa | - | - | 408 W/m² | - |
| 1777809617 | 22.22° C | 43% | 1010.6 hPa | - | - | 336 W/m² | - |
| 1777809016 | 22.22° C | 43% | 1010.7 hPa | - | - | 220 W/m² | - |
| 1777808416 | 22.78° C | 43% | 1010.8 hPa | - | - | 290 W/m² | - |
| 1777807825 | 22.78° C | 47% | 1010.8 hPa | - | - | 376 W/m² | - |
| 1777807225 | 22.22° C | 48% | 1011 hPa | - | - | 280 W/m² | - |
| 1777806624 | 22.22° C | 48% | 1011 hPa | - | - | 384 W/m² | - |
| 1777806024 | 22.22° C | 51% | 1011 hPa | - | - | 556 W/m² | - |
| 1777805423 | 22.22° C | 52% | 1011.1 hPa | - | - | 600 W/m² | - |
* Rain since midnight (hover to see other rain measurements)
** Current wind speed in m/s (hover to see current wind gust speed)